TimeMDT,TemperatureF,Dew PointF,Humidity,Sea Level PressureIn,VisibilityMPH,Wind Direction,Wind SpeedMPH,Gust SpeedMPH,PrecipitationIn,Events,Conditions,WindDirDegrees,DateUTC
12:53 AM,46.9,30.9,54,29.91,10.0,South,11.5,-,N/A,,Clear,190,2013-04-05 06:53:00
1:53 AM,46.0,32.0,58,29.89,10.0,SSW,10.4,-,N/A,,Clear,200,2013-04-05 07:53:00
2:53 AM,48.9,33.1,54,29.86,10.0,SSW,10.4,-,N/A,,Clear,210,2013-04-05 08:53:00
3:53 AM,50.0,30.9,48,29.83,10.0,SW,16.1,-,N/A,,Clear,220,2013-04-05 09:53:00
4:53 AM,48.0,30.0,50,29.82,10.0,SW,13.8,-,N/A,,Clear,220,2013-04-05 10:53:00
5:53 AM,48.0,28.9,48,29.81,10.0,SSW,12.7,-,N/A,,Clear,210,2013-04-05 11:53:00
6:53 AM,48.0,28.9,48,29.81,10.0,SW,15.0,-,N/A,,Clear,230,2013-04-05 12:53:00
7:53 AM,48.9,30.9,50,29.83,10.0,West,5.8,-,N/A,,Clear,260,2013-04-05 13:53:00
8:53 AM,51.1,32.0,48,29.82,10.0,WSW,4.6,-,N/A,,Clear,240,2013-04-05 14:53:00
9:53 AM,57.9,30.0,35,29.79,10.0,WNW,11.5,-,N/A,,Clear,300,2013-04-05 15:53:00
10:53 AM,63.0,28.9,28,29.77,10.0,NW,12.7,-,N/A,,Clear,310,2013-04-05 16:53:00
11:53 AM,73.0,26.1,17,29.71,10.0,Variable,4.6,-,N/A,,Clear,0,2013-04-05 17:53:00
12:53 PM,75.9,19.9,12,29.66,10.0,West,19.6,24.2,N/A,,Clear,260,2013-04-05 18:53:00
1:53 PM,73.9,23.0,15,29.64,10.0,West,15.0,27.6,N/A,,Mostly Cloudy,260,2013-04-05 19:53:00
2:53 PM,75.0,24.1,15,29.62,10.0,West,18.4,25.3,N/A,,Scattered Clouds,270,2013-04-05 20:53:00
3:53 PM,71.1,23.0,16,29.61,10.0,WNW,12.7,19.6,N/A,,Mostly Cloudy,290,2013-04-05 21:53:00
4:53 PM,72.0,23.0,16,29.59,10.0,WSW,13.8,23.0,N/A,,Clear,250,2013-04-05 22:53:00
5:53 PM,71.1,21.9,16,29.57,10.0,West,6.9,-,N/A,,Clear,270,2013-04-05 23:53:00
6:53 PM,64.9,24.1,21,29.59,8.0,West,4.6,-,N/A,,Partly Cloudy,260,2013-04-06 00:53:00
7:53 PM,64.0,30.0,28,29.65,10.0,WNW,16.1,34.5,N/A,,Overcast,290,2013-04-06 01:53:00
8:53 PM,61.0,32.0,34,29.66,10.0,NW,12.7,-,N/A,,Overcast,310,2013-04-06 02:53:00
9:53 PM,57.0,37.9,49,29.69,9.0,WNW,24.2,36.8,0.00,Rain,Light Rain,300,2013-04-06 03:53:00
10:53 PM,55.0,37.9,53,29.71,10.0,NW,15.0,28.8,0.04,Rain,Light Rain,310,2013-04-06 04:53:00
11:53 PM,51.1,37.9,61,29.69,10.0,WNW,11.5,-,0.00,,Clear,290,2013-04-06 05:53:00